Tracking 18843 objects as of 21-November-2017
HD Live streaming from Space Station
objects crossing your sky now

OPS 5644

Track OPS 5644 now!
10-day predictions
OPS 5644 is classified as:


NORAD ID: 10033
Int'l Code: 1977-044A
Perigee: 772.7 km
Apogee: 830.5 km
Inclination: 99.1 °
Period: 100.8 minutes
Semi major axis: 7172 km
RCS: Unknown
Launch date: June 5, 1977
Source: United States (US)
Launch site: AIR FORCE WESTERN TEST RANGE (AFWTR)
aabbcc
Your satellite tracking list
Your tracking list is empty




NASA's NSSDC Master Catalog

Two Line Element Set (TLE):
1 10033U 77044A   17323.24614979 0.00000070  00000-0  27359-4 0    07
2 10033  99.1422 184.0832 0040312 291.1853  68.8145 14.29190849    00
Source of the keplerian elements: McCants